STARLINK-34607

Last updated on Sat Jul 19 2025 00:02:08 GMT+0000 (Coordinated Universal Time)

1 64742U 25144U 25199.58335648 -.01535000 00000+0 -13068-1 0 9991 2 64742 53.1583 192.1580 0001235 60.6504 58.3224 15.71644178 3795
UTC large
Height (km)
Speed (km/s)
/
Latitude / Longitude
Inclination (degrees)
Orbital Period (minutes)
Azimuth
Elevation
Range (km)
Doppler Factor

Next 0 passes for location: London (51.5072 / 0.1276)

Sorry there are no passes over London.